Regional Weather Roundup
Issued by NWS Charleston, SC

Current Version | Previous Version | Text Only | Print | Product List | Glossary Off
Versions: 1 2 3 4 5 6 7 8 9 10 11 12 13 14 15 16 17 18 19 20 21 22 23 24 25 26 27 28 29 30 31 32 33 34 35 36 37 38 39 40 41 42 43 44 45 46 47 48 49 50
000 ASUS42 KCHS 150127 RWRCHS Regional Weather Roundup National Weather Service Charleston SC 800 PM EST WED NOV 14 2018 NOTE: "fair" indicates few or no clouds below 12,000 feet with no significant weather and/or obstructions to visibility. Not all stations are quality controlled. Use data with caution, especially dewpoint observations. SCZ027-030-031-034>040-042>050-150200- ...Southeast South Carolina... CITY SKY/WX TMP DP RH WIND PRES REMARKS N Charleston CLOUDY 51 46 83 NE13 30.22S Waterfront Prk N/A 54 50 86 NE17 30.07S Mount Pleasant CLOUDY 52 48 87 N8 30.22F Johns Island CLOUDY 52 48 87 N14 30.19F HAZE Pinopolis N/A 52 48 87 NE16 30.18R Moncks Corner RAIN 50 45 81 NE14G21 30.24F Summerville HVY RAIN 50 45 81 NE7 30.25S Beaufort MCAS CLOUDY 53 50 89 NE16G25 30.17F Beaufort Arpt CLOUDY 54 48 82 NE20G31 30.17F Hilton Head Is CLOUDY 55 52 88 NE17 30.17F Walterboro DRIZZLE 48 45 87 NE10 30.23F Allendale CLOUDY 48 46 93 VRB6G13 30.21R ...Southern Midlands and Pee Dee... CITY SKY/WX TMP DP RH WIND PRES REMARKS Georgetown CLOUDY 50 43 76 NE12G18 30.26F Kingstree CLOUDY 46 43 87 N8 30.30R Orangeburg CLOUDY 47 42 83 NE12G24 30.25F Barnwell CLOUDY 46 45 93 NE14G21 30.22S Aiken LGT RAIN 45 45 100 NE17G24 30.25F Manning CLOUDY 45 37 76 NE14G20 30.28F Columbia LGT RAIN 47 45 93 NE12 30.29F Sumter FAIR 45 41 87 NE12 30.29F Florence CLOUDY 48 40 73 NE13 30.32F Myrtle Beach CLOUDY 51 38 60 NE12G21 30.30S N Myrtle Beach CLOUDY 50 37 61 NE18G24 30.28S $$ GAZ063-065-086>088-099>101-113>116-118-119-134>141-150-150200- ...Southeast Georgia... CITY SKY/WX TMP DP RH WIND PRES REMARKS Savannah Arpt CLOUDY 56 51 84 NE18G25 30.16F Hunter AAF CLOUDY 56 53 88 NE12G20 30.12F Fort Stewart CLOUDY 56 52 85 NE9 30.14S Statesboro DRIZZLE 51 50 97 NE5 30.19R Sylvania RAIN 50 49 97 NE5 30.20S Claxton CLOUDY 55 53 92 N9 30.18R ...CSRA, Central and far Southeast Georgia... CITY SKY/WX TMP DP RH WIND PRES REMARKS Thomson RAIN 46 45 95 SE12G18 30.28S FOG Augusta-Bush RAIN 48 45 89 NE12 30.22F FOG Augusta-Daniel LGT RAIN 48 43 82 NE13 30.22F Swainsboro HVY RAIN 50 50 100 NE10G20 30.18F Vidalia DRIZZLE 52 50 93 NE8 30.16F Eastman RAIN 51 50 97 NE8G16 30.19S Hazlehurst CLOUDY 55 52 90 NE9G17 30.12S FOG Alma CLOUDY 55 53 93 VRB5 30.11F FOG Waycross CLOUDY 57 54 91 E10 30.10S FOG Jesup CLOUDY 57 54 88 E12 30.12F Baxley CLOUDY 52 52 100 NE13 30.12F FOG Brunswick CLOUDY 63 59 88 NE17G26 30.10F Saint Simons CLOUDY 65 62 90 NE18G29 30.08F $$ SCZ027-028-034-036>038-045-046-048>050-GAZ119-141-150200- ...Lake and Supplemental Coastal Observations... STATION/POSITION TIME TEMP WIND PRES WAVE SWELL AIR SEA DIR/SP/G HT/PER HT/PER/DIR (UTC) (F) (DEG/KT/KT) (MB) (FT/S) (FT/S/D) Winyah Bay 0045 54 50/ 19 1024.0S Lake Murray 0020 47 30/ 5/ 9 1025.7 ACE Basin NERRS 0030 53 20/ 5 1023.0R Fort Pulaski 0100 58 66 50/ 18/ 24 1021.0 Sapelo Island 0100 63 50/ 17 1019.0 $$ ANZ835-935-AMZ111-154-330-350-352-354-370-450-454-472-150200- ...C-MAN and Buoy Observations... STATION/POSITION TIME TEMP WIND PRES WAVE SWELL AIR SEA DIR/SP/G HT/PER HT/PER/DIR (UTC) (F) (DEG/KT/KT) (MB) (FT/S) (FT/S/D) Buoy 41004 0100 68 74 60/ 31/ 39 1020.5 Buoy 41008 0050 67 71 200/ 10/ 17 1018.1F 9/ 8 8/ 70/ 8 Folly Beach CMAN 0100 55 20/ 20/ 23 1022.7F Capers Nearshore 0108 61 67 50/ 27 1025.4R STATION/POSITION TIME TEMP WIND PRES WAVE SWELL AIR SEA DIR/SP/G HT/PER HT/PER/DIR (UTC) (F) (DEG/KT/KT) (MB) (FT/S) (FT/S/D) 5E St. Marys GA 0100 71 N/A 8/ 8 2/ 80/11 Frying Pan Buoy 0100 64 74 50/ 29/ 37 1023.8 Buoy 41025 0110 59 77 40/ 25/ 33 1028.0 Cape Lookout NC 0100 30/ 29/ 35 1027.4F Buoy 41002 0100 77 1020.4 Buoy 41010 0100 81 82 140/ 10/ 14 1017.4 St Augustine FL 0100 75 74 50/ 16/ 17 1016.2F $$

USA.gov is the U.S. government's official web portal to all federal, state and local government web resources and services.